START_TIME,STEP,MOV.,M29,t_acc.,H22,t_acc.,H26,t_acc.,H30,t_acc.
1979-07-24 15:00:31.370 ,1,0,0.,24.0,0.,24.0,0.,24.0,0.,24.0
1979-07-24 15:00:55.370 ,2,1,1.,24.0,0.,24.0,0.,24.0,0.,24.0
1979-07-24 15:01:19.370 ,2,0,0.,24.0,0.,24.0,0.,24.0,0.,24.0
1979-07-24 15:01:43.370 ,3,1,0.,24.0,0.,24.0,0.,24.0,0.,24.0
1979-07-24 15:02:07.370 ,3,0,0.,24.0,0.,24.0,0.,24.0,0.,24.0
1979-07-24 15:02:31.370 ,4,1,0.,24.0,0.,24.0,0.,24.0,0.,24.0
1979-07-24 15:02:55.370 ,0,0,0.,24.0,0.,24.0,0.,24.0,0.,24.0
1979-07-24 15:03:19.370 ,5,1,0.,24.0,0.,24.0,0.,24.0,0.,24.0
1979-07-24 15:03:43.370 ,5,0,0.,24.0,0.,24.0,0.,24.0,0.,24.0
1979-07-24 15:04:07.370 ,6,1,0.,24.0,0.,24.0,0.,24.0,0.,24.0
1979-07-24 15:04:31.370 ,6,0,0.,24.0,0.,24.0,0.,24.0,0.,24.0
1979-07-24 15:04:55.370 ,7,1,0.,24.0,0.,24.0,0.,24.0,0.,24.0
1979-07-24 15:05:19.370 ,7,0,0.,24.0,0.,24.0,0.,24.0,0.,24.0
1979-07-24 15:05:43.370 ,7,1,0.,24.0,0.,24.0,0.,24.0,0.,24.0
1979-07-24 15:06:07.370 ,7,0,0.,24.0,0.,24.0,0.,24.0,0.,24.0
1979-07-24 15:06:31.370 ,6,1,0.,24.0,0.,24.0,0.,24.0,0.,24.0
1979-07-24 15:06:55.370 ,6,0,0.,24.0,0.,24.0,0.,24.0,0.,24.0
1979-07-24 15:07:19.370 ,5,1,0.,24.0,0.,24.0,0.,24.0,0.,24.0
1979-07-24 15:07:43.370 ,5,0,0.,24.0,0.,24.0,0.,24.0,0.,24.0
1979-07-24 15:08:07.370 ,4,1,0.,24.0,0.,24.0,0.,24.0,0.,24.0
1979-07-24 15:08:31.370 ,4,0,0.,24.0,0.,24.0,0.,24.0,0.,24.0
1979-07-24 15:08:55.370 ,3,1,0.,24.0,0.,24.0,0.,24.0,0.,24.0
1979-07-24 15:09:19.370 ,3,0,0.,24.0,0.,24.0,0.,24.0,0.,24.0
1979-07-24 15:09:43.370 ,2,1,0.,24.0,0.,24.0,0.,24.0,0.,24.0
1979-07-24 15:10:07.370 ,2,0,0.,24.0,0.,24.0,0.,24.0,0.,24.0
1979-07-24 15:10:31.370 ,1,1,0.,24.0,0.,24.0,0.,24.0,0.,24.0
1979-07-24 15:10:55.370 ,1,0,0.,24.0,0.,24.0,0.,24.0,0.,24.0
1979-07-24 15:11:19.370 ,0,1,0.,24.0,0.,24.0,0.,24.0,0.,24.0
1979-07-24 15:11:43.370 ,0,0,0.,24.0,0.,24.0,0.,24.0,0.,24.0
1979-07-24 15:12:07.370 ,0,1,0.,24.0,0.,24.0,0.,24.0,0.,24.0
1979-07-24 15:12:31.370 ,0,0,1.,24.0,0.,24.0,0.,24.0,0.,24.0
1979-07-24 15:12:55.370 ,1,1,0.,24.0,0.,24.0,0.,24.0,0.,24.0
1979-07-24 15:13:19.370 ,1,0,0.,24.0,0.,24.0,0.,24.0,0.,24.0
1979-07-24 15:13:43.370 ,2,1,0.,24.0,0.,24.0,0.,24.0,0.,24.0
1979-07-24 15:14:07.370 ,2,0,0.,24.0,0.,24.0,0.,24.0,0.,24.0
1979-07-24 15:14:31.370 ,3,1,0.,24.0,0.,24.0,0.,24.0,0.,24.0
1979-07-24 15:14:55.370 ,3,0,0.,24.0,0.,24.0,0.,24.0,0.,24.0
1979-07-24 15:15:19.370 ,4,1,0.,24.0,0.,24.0,0.,24.0,0.,24.0
1979-07-24 15:15:43.370 ,4,0,0.,24.0,0.,24.0,0.,24.0,0.,24.0
1979-07-24 15:16:07.370 ,5,1,0.,24.0,0.,24.0,0.,24.0,0.,24.0
1979-07-24 15:16:31.370 ,5,0,0.,24.0,0.,24.0,0.,24.0,0.,24.0
1979-07-24 15:16:55.370 ,6,1,1.,24.0,0.,24.0,0.,24.0,0.,24.0
1979-07-24 15:17:19.370 ,6,0,0.,24.0,0.,24.0,0.,24.0,0.,24.0
1979-07-24 15:17:43.370 ,7,1,0.,24.0,0.,24.0,0.,24.0,0.,24.0
1979-07-24 15:18:07.370 ,7,0,1.,24.0,0.,24.0,0.,24.0,0.,24.0
1979-07-24 15:18:31.370 ,7,1,0.,24.0,0.,24.0,0.,24.0,0.,24.0
1979-07-24 15:18:55.370 ,7,0,0.,24.0,0.,24.0,0.,24.0,0.,24.0
1979-07-24 15:19:19.370 ,6,1,0.,24.0,0.,24.0,0.,24.0,0.,24.0
1979-07-24 15:19:43.370 ,6,0,0.,24.0,0.,24.0,0.,24.0,0.,24.0
1979-07-24 15:20:07.370 ,5,1,0.,24.0,0.,24.0,0.,24.0,0.,24.0
1979-07-24 15:20:31.370 ,5,0,0.,24.0,0.,24.0,0.,24.0,0.,24.0
1979-07-24 15:20:55.370 ,4,1,0.,24.0,0.,24.0,0.,24.0,0.,24.0
1979-07-24 15:21:19.370 ,4,0,0.,24.0,0.,24.0,0.,24.0,0.,24.0
1979-07-24 15:21:43.370 ,3,1,0.,24.0,0.,24.0,0.,24.0,0.,24.0
1979-07-24 15:22:07.370 ,3,0,0.,24.0,0.,24.0,0.,24.0,0.,24.0
1979-07-24 15:22:31.370 ,2,1,0.,24.0,0.,24.0,0.,24.0,0.,24.0
1979-07-24 15:22:55.370 ,2,0,0.,24.0,0.,24.0,0.,24.0,0.,24.0
1979-07-24 15:23:19.370 ,1,1,0.,24.0,0.,24.0,0.,24.0,0.,24.0
1979-07-24 15:23:43.370 ,1,0,0.,24.0,0.,24.0,0.,24.0,0.,24.0
1979-07-24 15:24:07.370 ,0,1,0.,24.0,0.,24.0,0.,24.0,0.,24.0
1979-07-24 15:24:31.370 ,0,0,0.,24.0,0.,24.0,0.,24.0,0.,24.0
1979-07-24 15:24:55.370 ,0,1,0.,24.0,0.,24.0,0.,24.0,0.,24.0
1979-07-24 15:25:19.370 ,0,0,0.,24.0,0.,24.0,0.,24.0,0.,24.0
1979-07-24 15:25:43.370 ,1,1,0.,24.0,0.,24.0,0.,24.0,0.,24.0
1979-07-24 15:26:07.370 ,1,0,0.,24.0,0.,24.0,0.,24.0,0.,24.0
1979-07-24 15:26:31.370 ,2,1,0.,24.0,0.,24.0,0.,24.0,0.,24.0
1979-07-24 15:26:55.370 ,2,0,0.,24.0,0.,24.0,0.,24.0,0.,24.0
1979-07-24 15:27:19.370 ,3,1,0.,24.0,0.,24.0,0.,24.0,0.,24.0
1979-07-24 15:27:43.370 ,3,0,0.,24.0,0.,24.0,0.,24.0,0.,24.0
1979-07-24 15:28:07.370 ,4,1,0.,24.0,0.,24.0,0.,24.0,0.,24.0
1979-07-24 15:28:31.370 ,4,0,0.,24.0,0.,24.0,0.,24.0,0.,24.0
1979-07-24 15:28:55.370 ,5,1,0.,24.0,0.,24.0,0.,24.0,0.,24.0
1979-07-24 15:29:19.370 ,5,0,0.,24.0,0.,24.0,0.,24.0,0.,24.0
1979-07-24 15:29:43.370 ,6,1,0.,24.0,0.,24.0,0.,24.0,0.,24.0
1979-07-24 15:30:07.370 ,6,0,0.,24.0,0.,24.0,0.,24.0,0.,24.0
1979-07-24 15:30:31.370 ,7,0,0.,24.0,0.,24.0,0.,24.0,0.,24.0
1979-07-24 15:30:55.370 ,7,0,0.,24.0,0.,24.0,0.,24.0,0.,24.0
1979-07-24 15:31:19.370 ,5,1,0.,24.0,0.,24.0,0.,24.0,0.,24.0
1979-07-24 15:31:43.370 ,1,1,0.,24.0,0.,24.0,0.,24.0,0.,24.0
1979-07-24 15:32:07.370 ,2,1,0.,24.0,0.,24.0,0.,24.0,0.,24.0
1979-07-24 15:32:31.370 ,6,1,0.,24.0,0.,24.0,0.,24.0,0.,24.0
1979-07-24 15:32:55.370 ,5,1,0.,24.0,0.,24.0,0.,24.0,0.,24.0
1979-07-24 15:33:19.370 ,1,1,0.,24.0,0.,24.0,0.,24.0,0.,24.0
1979-07-24 15:33:43.370 ,2,1,0.,24.0,0.,24.0,0.,24.0,0.,24.0
1979-07-24 15:34:07.370 ,6,1,0.,24.0,0.,24.0,0.,24.0,0.,24.0
1979-07-24 15:34:31.370 ,5,1,0.,24.0,0.,24.0,0.,24.0,0.,24.0
1979-07-24 15:34:55.370 ,1,1,0.,24.0,0.,24.0,0.,24.0,0.,24.0
1979-07-24 15:35:19.370 ,2,1,0.,24.0,0.,24.0,0.,24.0,0.,24.0
1979-07-24 15:35:43.370 ,6,1,0.,24.0,0.,24.0,0.,24.0,0.,24.0
1979-07-24 15:36:07.370 ,5,1,0.,24.0,0.,24.0,0.,24.0,0.,24.0
1979-07-24 15:36:31.370 ,1,1,0.,24.0,0.,24.0,0.,24.0,0.,24.0
1979-07-24 15:36:55.370 ,2,1,0.,24.0,0.,24.0,0.,24.0,0.,24.0
1979-07-24 15:37:19.370 ,6,1,0.,24.0,0.,24.0,0.,24.0,0.,24.0
1979-07-24 15:37:43.370 ,5,1,0.,24.0,0.,24.0,0.,24.0,0.,24.0
1979-07-24 15:38:07.370 ,1,1,0.,24.0,0.,24.0,0.,24.0,0.,24.0
1979-07-24 15:38:31.370 ,2,1,0.,24.0,0.,24.0,0.,24.0,0.,24.0
1979-07-24 15:38:55.370 ,6,1,0.,24.0,0.,24.0,0.,24.0,0.,24.0
1979-07-24 15:39:19.370 ,5,1,0.,24.0,0.,24.0,0.,24.0,0.,24.0
1979-07-24 15:39:43.370 ,1,1,0.,24.0,0.,24.0,0.,24.0,0.,24.0
1979-07-24 15:40:07.370 ,2,1,0.,24.0,0.,24.0,0.,24.0,0.,24.0
1979-07-24 15:40:31.370 ,6,1,0.,24.0,0.,24.0,0.,24.0,0.,24.0
1979-07-24 15:40:55.370 ,5,1,0.,24.0,0.,24.0,0.,24.0,0.,24.0
1979-07-24 15:41:19.370 ,1,1,0.,24.0,0.,24.0,0.,24.0,0.,24.0
1979-07-24 15:41:43.370 ,0,0,0.,24.0,0.,24.0,0.,24.0,0.,24.0
1979-07-24 15:42:07.370 ,0,0,1.,24.0,0.,24.0,0.,24.0,0.,24.0
1979-07-24 15:42:31.370 ,5,1,0.,24.0,0.,24.0,0.,24.0,0.,24.0
1979-07-24 15:42:55.370 ,5,0,0.,24.0,0.,24.0,0.,24.0,0.,24.0
1979-07-24 15:43:19.370 ,4,1,0.,24.0,0.,24.0,0.,24.0,0.,24.0
1979-07-24 15:43:43.370 ,4,0,0.,24.0,0.,24.0,0.,24.0,0.,24.0
1979-07-24 15:44:07.370 ,3,1,0.,24.0,0.,24.0,0.,24.0,0.,24.0
1979-07-24 15:44:31.370 ,3,0,0.,24.0,0.,24.0,0.,24.0,0.,24.0
1979-07-24 15:44:55.370 ,2,1,0.,24.0,0.,24.0,0.,24.0,0.,24.0
1979-07-24 15:45:19.370 ,2,0,0.,24.0,0.,24.0,0.,24.0,0.,24.0
1979-07-24 15:45:43.370 ,1,1,0.,24.0,0.,24.0,0.,24.0,0.,24.0
1979-07-24 15:46:07.370 ,1,0,0.,24.0,0.,24.0,0.,24.0,0.,24.0
1979-07-24 15:46:31.370 ,0,1,0.,24.0,0.,24.0,0.,24.0,0.,24.0
1979-07-24 15:46:55.370 ,0,0,0.,24.0,0.,24.0,0.,24.0,0.,24.0
1979-07-24 15:47:19.370 ,0,1,0.,24.0,0.,24.0,0.,24.0,0.,24.0
1979-07-24 15:47:43.370 ,0,0,0.,24.0,0.,24.0,0.,24.0,0.,24.0
1979-07-24 15:48:07.370 ,1,1,0.,24.0,0.,24.0,0.,24.0,0.,24.0
1979-07-24 15:48:31.370 ,1,0,0.,24.0,0.,24.0,0.,24.0,0.,24.0
1979-07-24 15:48:55.370 ,2,1,0.,24.0,0.,24.0,0.,24.0,0.,24.0
1979-07-24 15:49:19.370 ,2,0,0.,24.0,0.,24.0,0.,24.0,0.,24.0
1979-07-24 15:49:43.370 ,3,1,0.,24.0,0.,24.0,0.,24.0,0.,24.0
1979-07-24 15:50:07.370 ,3,0,0.,24.0,0.,24.0,0.,24.0,0.,24.0
1979-07-24 15:50:31.370 ,4,1,0.,24.0,0.,24.0,0.,24.0,0.,24.0
1979-07-24 15:50:55.370 ,4,0,0.,24.0,0.,24.0,0.,24.0,0.,24.0
1979-07-24 15:51:19.370 ,5,1,0.,24.0,0.,24.0,0.,24.0,0.,24.0
1979-07-24 15:51:43.370 ,5,0,0.,24.0,0.,24.0,0.,24.0,0.,24.0
1979-07-24 15:52:07.370 ,6,1,0.,24.0,0.,24.0,0.,24.0,0.,24.0
1979-07-24 15:52:31.370 ,6,0,0.,24.0,0.,24.0,0.,24.0,0.,24.0
1979-07-24 15:52:55.370 ,7,1,0.,24.0,0.,24.0,0.,24.0,0.,24.0
1979-07-24 15:53:19.370 ,7,0,0.,24.0,0.,24.0,0.,24.0,0.,24.0
1979-07-24 15:53:43.370 ,7,1,0.,24.0,0.,24.0,0.,24.0,0.,24.0
1979-07-24 15:54:07.370 ,7,0,0.,24.0,0.,24.0,0.,24.0,0.,24.0
1979-07-24 15:54:31.370 ,6,1,0.,24.0,0.,24.0,0.,24.0,0.,24.0
1979-07-24 15:54:55.370 ,6,0,0.,24.0,0.,24.0,0.,24.0,0.,24.0
1979-07-24 15:55:19.370 ,5,1,0.,24.0,0.,24.0,0.,24.0,0.,24.0
1979-07-24 15:55:43.370 ,5,0,0.,24.0,0.,24.0,0.,24.0,0.,24.0
1979-07-24 15:56:07.370 ,4,1,0.,24.0,0.,24.0,0.,24.0,0.,24.0
1979-07-24 15:56:31.370 ,4,0,0.,24.0,0.,24.0,0.,24.0,0.,24.0
1979-07-24 15:56:55.370 ,3,1,0.,24.0,0.,24.0,0.,24.0,0.,24.0
1979-07-24 15:57:19.370 ,3,0,0.,24.0,0.,24.0,0.,24.0,0.,24.0
1979-07-24 15:57:43.370 ,2,1,0.,24.0,0.,24.0,0.,24.0,0.,24.0
1979-07-24 15:58:07.370 ,2,0,0.,24.0,0.,24.0,0.,24.0,0.,24.0
1979-07-24 15:58:31.370 ,1,1,0.,24.0,0.,24.0,0.,24.0,0.,24.0
1979-07-24 15:58:55.370 ,1,0,0.,24.0,0.,24.0,0.,24.0,0.,24.0
1979-07-24 15:59:19.370 ,0,1,0.,24.0,0.,24.0,0.,24.0,0.,24.0
1979-07-24 15:59:43.370 ,0,0,0.,24.0,0.,24.0,0.,24.0,0.,24.0
1979-07-24 16:00:07.370 ,0,1,0.,24.0,0.,24.0,0.,24.0,0.,24.0
1979-07-24 16:00:31.370 ,0,0,0.,24.0,0.,24.0,0.,24.0,0.,24.0
1979-07-24 16:00:55.370 ,1,1,0.,24.0,0.,24.0,0.,24.0,0.,24.0
1979-07-24 16:01:19.370 ,1,0,0.,24.0,0.,24.0,0.,24.0,0.,24.0
1979-07-24 16:01:43.370 ,2,1,0.,24.0,0.,24.0,0.,24.0,0.,24.0
1979-07-24 16:02:07.370 ,2,0,1.,24.0,0.,24.0,0.,24.0,0.,24.0
1979-07-24 16:02:31.370 ,3,1,0.,24.0,0.,24.0,0.,24.0,0.,24.0
1979-07-24 16:02:55.370 ,3,0,0.,24.0,0.,24.0,0.,24.0,0.,24.0
1979-07-24 16:03:19.370 ,4,1,0.,24.0,0.,24.0,0.,24.0,0.,24.0
1979-07-24 16:03:43.370 ,4,0,0.,24.0,0.,24.0,0.,24.0,0.,24.0
1979-07-24 16:04:07.370 ,5,1,0.,24.0,0.,24.0,0.,24.0,0.,24.0
1979-07-24 16:04:31.370 ,5,0,0.,24.0,0.,24.0,0.,24.0,0.,24.0
1979-07-24 16:04:55.370 ,6,1,0.,24.0,0.,24.0,0.,24.0,0.,24.0
1979-07-24 16:05:19.370 ,6,0,0.,24.0,0.,24.0,0.,24.0,0.,24.0
1979-07-24 16:05:43.370 ,7,1,0.,24.0,0.,24.0,0.,24.0,0.,24.0
1979-07-24 16:06:07.370 ,7,0,0.,24.0,0.,24.0,0.,24.0,0.,24.0
1979-07-24 16:06:31.370 ,7,1,0.,24.0,0.,24.0,0.,24.0,0.,24.0
1979-07-24 16:06:55.370 ,7,0,0.,24.0,0.,24.0,0.,24.0,0.,24.0
1979-07-24 16:07:19.370 ,6,1,0.,24.0,0.,24.0,0.,24.0,0.,24.0
1979-07-24 16:07:43.370 ,6,0,0.,24.0,0.,24.0,0.,24.0,0.,24.0
1979-07-24 16:08:07.370 ,5,1,0.,24.0,0.,24.0,0.,24.0,0.,24.0
1979-07-24 16:08:31.370 ,5,0,0.,24.0,0.,24.0,0.,24.0,0.,24.0
1979-07-24 16:08:55.370 ,4,1,0.,24.0,0.,24.0,0.,24.0,0.,24.0
1979-07-24 16:09:19.370 ,4,0,0.,24.0,0.,24.0,0.,24.0,0.,24.0
1979-07-24 16:09:43.370 ,3,1,0.,24.0,0.,24.0,0.,24.0,0.,24.0
1979-07-24 16:10:07.370 ,3,0,0.,24.0,0.,24.0,0.,24.0,0.,24.0
1979-07-24 16:10:31.370 ,2,1,0.,24.0,0.,24.0,0.,24.0,0.,24.0
1979-07-24 16:10:55.370 ,2,0,0.,24.0,0.,24.0,0.,24.0,0.,24.0
1979-07-24 16:11:19.370 ,1,1,0.,24.0,0.,24.0,0.,24.0,0.,24.0
1979-07-24 16:11:43.370 ,1,0,0.,24.0,0.,24.0,0.,24.0,0.,24.0
1979-07-24 16:12:07.370 ,0,1,0.,24.0,0.,24.0,0.,24.0,0.,24.0
1979-07-24 16:12:31.370 ,0,0,0.,24.0,0.,24.0,0.,24.0,0.,24.0
1979-07-24 16:12:55.370 ,0,1,0.,24.0,0.,24.0,0.,24.0,0.,24.0
1979-07-24 16:13:19.370 ,0,0,0.,24.0,0.,24.0,0.,24.0,0.,24.0
1979-07-24 16:13:43.370 ,1,1,0.,24.0,0.,24.0,0.,24.0,0.,24.0
1979-07-24 16:14:07.370 ,1,0,0.,24.0,0.,24.0,0.,24.0,0.,24.0
1979-07-24 16:14:31.370 ,2,1,0.,24.0,0.,24.0,0.,24.0,0.,24.0
1979-07-24 16:14:55.370 ,2,0,0.,24.0,0.,24.0,0.,24.0,0.,24.0
1979-07-24 16:15:19.370 ,3,1,0.,24.0,0.,24.0,0.,24.0,0.,24.0
1979-07-24 16:15:43.370 ,3,0,0.,24.0,0.,24.0,0.,24.0,0.,24.0
1979-07-24 16:16:07.370 ,4,1,0.,24.0,0.,24.0,0.,24.0,0.,24.0
1979-07-24 16:16:31.370 ,4,0,0.,24.0,0.,24.0,0.,24.0,0.,24.0
1979-07-24 16:16:55.370 ,5,1,0.,24.0,0.,24.0,0.,24.0,0.,24.0
1979-07-24 16:17:19.370 ,5,0,0.,24.0,0.,24.0,0.,24.0,0.,24.0
1979-07-24 16:17:43.370 ,6,1,0.,24.0,0.,24.0,0.,24.0,0.,24.0
1979-07-24 16:18:07.370 ,6,0,0.,24.0,0.,24.0,0.,24.0,0.,24.0
1979-07-24 16:18:31.370 ,7,0,0.,24.0,0.,24.0,0.,24.0,0.,24.0
1979-07-24 16:18:55.370 ,7,0,0.,24.0,0.,24.0,0.,24.0,0.,24.0
1979-07-24 16:19:19.370 ,5,1,0.,24.0,0.,24.0,0.,24.0,0.,24.0
1979-07-24 16:19:43.370 ,1,1,0.,24.0,0.,24.0,0.,24.0,0.,24.0
1979-07-24 16:20:07.370 ,2,1,0.,24.0,0.,24.0,0.,24.0,0.,24.0
1979-07-24 16:20:31.370 ,6,1,0.,24.0,0.,24.0,0.,24.0,0.,24.0
1979-07-24 16:20:55.370 ,5,1,0.,24.0,0.,24.0,0.,24.0,0.,24.0
1979-07-24 16:21:19.370 ,1,1,0.,24.0,0.,24.0,0.,24.0,0.,24.0
1979-07-24 16:21:43.370 ,2,1,0.,24.0,0.,24.0,0.,24.0,0.,24.0
1979-07-24 16:22:07.370 ,6,1,0.,24.0,0.,24.0,0.,24.0,0.,24.0
1979-07-24 16:22:31.370 ,5,1,0.,24.0,0.,24.0,0.,24.0,0.,24.0
1979-07-24 16:22:55.370 ,1,1,0.,24.0,0.,24.0,0.,24.0,0.,24.0
1979-07-24 16:23:19.370 ,2,1,0.,24.0,0.,24.0,0.,24.0,0.,24.0
1979-07-24 16:23:43.370 ,6,1,0.,24.0,0.,24.0,0.,24.0,0.,24.0
1979-07-24 16:24:07.370 ,5,1,0.,24.0,0.,24.0,0.,24.0,0.,24.0
1979-07-24 16:24:31.370 ,1,1,0.,24.0,0.,24.0,0.,24.0,0.,24.0
1979-07-24 16:24:55.370 ,2,1,0.,24.0,0.,24.0,0.,24.0,0.,24.0
1979-07-24 16:25:19.370 ,6,1,0.,24.0,0.,24.0,0.,24.0,0.,24.0
1979-07-24 16:25:43.370 ,5,1,0.,24.0,0.,24.0,0.,24.0,0.,24.0
1979-07-24 16:26:07.370 ,1,1,0.,24.0,0.,24.0,0.,24.0,0.,24.0
1979-07-24 16:26:31.370 ,2,1,0.,24.0,0.,24.0,0.,24.0,0.,24.0
1979-07-24 16:26:55.370 ,6,1,0.,24.0,0.,24.0,0.,24.0,0.,24.0
1979-07-24 16:27:19.370 ,5,1,0.,24.0,0.,24.0,0.,24.0,0.,24.0
1979-07-24 16:27:43.370 ,1,1,0.,24.0,0.,24.0,0.,24.0,0.,24.0
1979-07-24 16:28:07.370 ,2,1,0.,24.0,0.,24.0,0.,24.0,0.,24.0
1979-07-24 16:28:31.370 ,6,1,0.,24.0,0.,24.0,0.,24.0,0.,24.0
1979-07-24 16:28:55.370 ,5,1,0.,24.0,0.,24.0,0.,24.0,0.,24.0
1979-07-24 16:29:19.370 ,1,1,0.,24.0,0.,24.0,0.,24.0,0.,24.0
1979-07-24 16:29:43.370 ,0,0,0.,24.0,0.,24.0,0.,24.0,0.,24.0
1979-07-24 16:30:07.370 ,0,0,0.,24.0,0.,24.0,0.,24.0,0.,24.0
1979-07-24 16:30:31.370 ,5,1,0.,24.0,0.,24.0,0.,24.0,0.,24.0
1979-07-24 16:30:55.370 ,5,0,0.,24.0,0.,24.0,0.,24.0,0.,24.0
1979-07-24 16:31:19.370 ,4,1,0.,24.0,0.,24.0,0.,24.0,0.,24.0
1979-07-24 16:31:43.370 ,4,0,0.,24.0,0.,24.0,0.,24.0,0.,24.0
1979-07-24 16:32:07.370 ,3,1,0.,24.0,0.,24.0,0.,24.0,0.,24.0
1979-07-24 16:32:31.370 ,3,0,0.,24.0,0.,24.0,0.,24.0,0.,24.0
1979-07-24 16:32:55.370 ,2,1,0.,24.0,0.,24.0,0.,24.0,0.,24.0
1979-07-24 16:33:19.370 ,2,0,0.,24.0,0.,24.0,0.,24.0,0.,24.0
1979-07-24 16:33:43.370 ,1,1,0.,24.0,0.,24.0,0.,24.0,0.,24.0
1979-07-24 16:34:07.370 ,1,0,0.,24.0,0.,24.0,0.,24.0,0.,24.0
1979-07-24 16:34:31.370 ,0,1,0.,24.0,0.,24.0,0.,24.0,0.,24.0
1979-07-24 16:34:55.370 ,0,0,0.,24.0,0.,24.0,0.,24.0,0.,24.0
1979-07-24 16:35:19.370 ,0,1,0.,24.0,0.,24.0,0.,24.0,0.,24.0
1979-07-24 16:35:43.370 ,0,0,0.,24.0,0.,24.0,0.,24.0,0.,24.0
1979-07-24 16:36:07.370 ,1,1,0.,24.0,0.,24.0,0.,24.0,0.,24.0
1979-07-24 16:36:31.370 ,1,0,0.,24.0,0.,24.0,0.,24.0,0.,24.0
1979-07-24 16:36:55.370 ,2,1,0.,24.0,0.,24.0,0.,24.0,0.,24.0
1979-07-24 16:37:19.370 ,2,0,0.,24.0,0.,24.0,0.,24.0,0.,24.0
1979-07-24 16:37:43.370 ,3,1,0.,24.0,0.,24.0,0.,24.0,0.,24.0
1979-07-24 16:38:07.370 ,3,0,0.,24.0,0.,24.0,0.,24.0,0.,24.0
1979-07-24 16:38:31.370 ,4,1,0.,24.0,0.,24.0,0.,24.0,0.,24.0
1979-07-24 16:38:55.370 ,4,0,0.,24.0,0.,24.0,0.,24.0,0.,24.0
1979-07-24 16:39:19.370 ,5,1,0.,24.0,0.,24.0,0.,24.0,0.,24.0
1979-07-24 16:39:43.370 ,5,0,0.,24.0,0.,24.0,0.,24.0,0.,24.0
1979-07-24 16:40:07.370 ,6,1,0.,24.0,0.,24.0,0.,24.0,0.,24.0
1979-07-24 16:40:31.370 ,6,0,0.,24.0,0.,24.0,0.,24.0,0.,24.0
1979-07-24 16:40:55.370 ,7,1,0.,24.0,0.,24.0,0.,24.0,0.,24.0
1979-07-24 16:41:19.370 ,7,0,0.,24.0,0.,24.0,0.,24.0,0.,24.0
1979-07-24 16:41:43.370 ,7,1,0.,24.0,0.,24.0,0.,24.0,0.,24.0
1979-07-24 16:42:07.370 ,7,0,0.,24.0,0.,24.0,0.,24.0,0.,24.0
1979-07-24 16:42:31.370 ,6,1,0.,24.0,0.,24.0,0.,24.0,0.,24.0
1979-07-24 16:42:55.370 ,6,0,0.,24.0,0.,24.0,0.,24.0,0.,24.0
1979-07-24 16:43:19.370 ,5,1,0.,24.0,0.,24.0,0.,24.0,0.,24.0
1979-07-24 16:43:43.370 ,5,0,0.,24.0,0.,24.0,0.,24.0,0.,24.0
1979-07-24 16:44:07.370 ,4,1,0.,24.0,0.,24.0,0.,24.0,0.,24.0
1979-07-24 16:44:31.370 ,4,0,0.,24.0,0.,24.0,0.,24.0,0.,24.0
1979-07-24 16:44:55.370 ,3,1,0.,24.0,0.,24.0,0.,24.0,0.,24.0
1979-07-24 16:45:19.370 ,3,0,1.,24.0,0.,24.0,0.,24.0,0.,24.0
1979-07-24 16:45:43.370 ,2,1,0.,24.0,0.,24.0,0.,24.0,0.,24.0
1979-07-24 16:46:07.370 ,2,0,0.,24.0,0.,24.0,0.,24.0,0.,24.0
1979-07-24 16:46:31.370 ,1,1,0.,24.0,0.,24.0,0.,24.0,0.,24.0
1979-07-24 16:46:55.370 ,1,0,0.,24.0,0.,24.0,0.,24.0,0.,24.0
1979-07-24 16:47:19.370 ,0,1,0.,24.0,0.,24.0,0.,24.0,0.,24.0
1979-07-24 16:47:43.370 ,0,0,0.,24.0,0.,24.0,0.,24.0,0.,24.0
1979-07-24 16:48:07.370 ,0,1,0.,24.0,0.,24.0,0.,24.0,0.,24.0
1979-07-24 16:48:31.370 ,0,0,0.,24.0,0.,24.0,0.,24.0,0.,24.0
1979-07-24 16:48:55.370 ,1,1,0.,24.0,0.,24.0,0.,24.0,0.,24.0
1979-07-24 16:49:19.370 ,1,0,0.,24.0,0.,24.0,0.,24.0,0.,24.0
1979-07-24 16:49:43.370 ,2,1,0.,24.0,0.,24.0,0.,24.0,0.,24.0
1979-07-24 16:50:07.370 ,2,0,0.,24.0,0.,24.0,0.,24.0,0.,24.0
1979-07-24 16:50:31.360 ,3,1,0.,24.0,0.,24.0,0.,24.0,0.,24.0
1979-07-24 16:50:55.360 ,3,0,0.,24.0,0.,24.0,0.,24.0,0.,24.0
1979-07-24 16:51:19.360 ,4,1,0.,24.0,0.,24.0,0.,24.0,0.,24.0
1979-07-24 16:51:43.360 ,4,0,0.,24.0,0.,24.0,0.,24.0,0.,24.0
1979-07-24 16:52:07.360 ,5,1,0.,24.0,0.,24.0,0.,24.0,0.,24.0
1979-07-24 16:52:31.360 ,5,0,0.,24.0,0.,24.0,0.,24.0,0.,24.0
1979-07-24 16:52:55.360 ,6,1,0.,24.0,0.,24.0,0.,24.0,0.,24.0
1979-07-24 16:53:19.360 ,6,0,0.,24.0,0.,24.0,0.,24.0,0.,24.0
1979-07-24 16:53:43.360 ,7,1,0.,24.0,0.,24.0,0.,24.0,0.,24.0
1979-07-24 16:54:07.360 ,7,0,0.,24.0,0.,24.0,0.,24.0,0.,24.0
1979-07-24 16:54:31.360 ,7,1,0.,24.0,0.,24.0,0.,24.0,0.,24.0
1979-07-24 16:54:55.360 ,7,0,0.,24.0,0.,24.0,0.,24.0,0.,24.0
1979-07-24 16:55:19.360 ,6,1,0.,24.0,0.,24.0,0.,24.0,0.,24.0
1979-07-24 16:55:43.360 ,6,0,0.,24.0,0.,24.0,0.,24.0,0.,24.0
1979-07-24 16:56:07.360 ,5,1,0.,24.0,0.,24.0,0.,24.0,0.,24.0
1979-07-24 16:56:31.360 ,5,0,0.,24.0,0.,24.0,0.,24.0,0.,24.0
1979-07-24 16:56:55.360 ,4,1,0.,24.0,0.,24.0,0.,24.0,0.,24.0
1979-07-24 16:57:19.360 ,0,0,0.,24.0,0.,24.0,0.,24.0,0.,24.0
1979-07-24 16:57:39.760 ,0,0,,0,,0,,0,,0
1979-07-24 16:57:43.360 ,3,1,0.,24.0,0.,24.0,0.,24.0,0.,24.0
1979-07-24 16:58:07.360 ,3,0,0.,24.0,0.,24.0,0.,24.0,0.,24.0
1979-07-24 16:58:31.360 ,2,1,0.,24.0,0.,24.0,0.,24.0,0.,24.0
1979-07-24 16:58:55.360 ,2,0,0.,24.0,0.,24.0,0.,24.0,0.,24.0
1979-07-24 16:59:19.360 ,1,1,0.,24.0,0.,24.0,0.,24.0,0.,24.0
1979-07-24 16:59:43.360 ,1,0,0.,24.0,0.,24.0,0.,24.0,0.,24.0
1979-07-24 17:00:07.370 ,0,1,0.,24.0,0.,24.0,0.,24.0,0.,24.0
1979-07-24 17:00:31.370 ,0,0,0.,24.0,0.,24.0,0.,24.0,0.,24.0
1979-07-24 17:00:55.370 ,0,1,0.,24.0,0.,24.0,0.,24.0,0.,24.0
1979-07-24 17:01:19.370 ,0,0,0.,24.0,0.,24.0,0.,24.0,0.,24.0
1979-07-24 17:01:43.360 ,1,1,0.,24.0,0.,24.0,0.,24.0,0.,24.0
1979-07-24 17:02:07.360 ,1,0,0.,24.0,0.,24.0,0.,24.0,0.,24.0
1979-07-24 17:02:31.370 ,2,1,0.,24.0,0.,24.0,0.,24.0,0.,24.0
1979-07-24 17:02:55.370 ,2,0,0.,24.0,0.,24.0,0.,24.0,0.,24.0
1979-07-24 17:03:19.370 ,3,1,0.,24.0,0.,24.0,0.,24.0,0.,24.0
1979-07-24 17:03:43.370 ,3,0,0.,24.0,0.,24.0,0.,24.0,0.,24.0
1979-07-24 17:04:07.370 ,4,1,0.,24.0,0.,24.0,0.,24.0,0.,24.0
1979-07-24 17:04:31.360 ,4,0,0.,24.0,0.,24.0,0.,24.0,0.,24.0
1979-07-24 17:04:55.360 ,5,1,0.,24.0,0.,24.0,0.,24.0,0.,24.0
1979-07-24 17:05:19.360 ,5,0,0.,24.0,0.,24.0,0.,24.0,0.,24.0
1979-07-24 17:05:43.360 ,6,1,0.,24.0,0.,24.0,0.,24.0,0.,24.0
1979-07-24 17:06:07.360 ,6,0,0.,24.0,0.,24.0,0.,24.0,0.,24.0
1979-07-24 17:06:31.360 ,7,0,0.,24.0,0.,24.0,0.,24.0,0.,24.0
1979-07-24 17:06:55.360 ,7,0,0.,24.0,0.,24.0,0.,24.0,0.,24.0
1979-07-24 17:07:19.360 ,5,1,0.,24.0,0.,24.0,0.,24.0,0.,24.0
1979-07-24 17:07:43.360 ,1,1,0.,24.0,0.,24.0,0.,24.0,0.,24.0
1979-07-24 17:08:07.360 ,2,1,0.,24.0,0.,24.0,0.,24.0,0.,24.0
1979-07-24 17:08:31.360 ,6,1,0.,24.0,0.,24.0,0.,24.0,0.,24.0
1979-07-24 17:08:55.370 ,5,1,0.,24.0,0.,24.0,0.,24.0,0.,24.0
1979-07-24 17:09:19.370 ,1,1,0.,24.0,0.,24.0,0.,24.0,0.,24.0
1979-07-24 17:09:43.360 ,2,1,0.,24.0,0.,24.0,0.,24.0,0.,24.0
1979-07-24 17:10:07.360 ,6,1,0.,24.0,0.,24.0,0.,24.0,0.,24.0
1979-07-24 17:10:31.360 ,5,1,0.,24.0,0.,24.0,0.,24.0,0.,24.0
1979-07-24 17:10:55.360 ,1,1,0.,24.0,0.,24.0,0.,24.0,0.,24.0
1979-07-24 17:11:19.360 ,2,1,0.,24.0,0.,24.0,0.,24.0,0.,24.0
1979-07-24 17:11:43.360 ,6,1,0.,24.0,0.,24.0,0.,24.0,0.,24.0
1979-07-24 17:12:07.360 ,5,1,0.,24.0,0.,24.0,0.,24.0,0.,24.0
1979-07-24 17:12:31.360 ,1,1,0.,24.0,0.,24.0,0.,24.0,0.,24.0
1979-07-24 17:12:55.360 ,2,1,0.,24.0,0.,24.0,0.,24.0,0.,24.0
1979-07-24 17:13:19.360 ,6,1,0.,24.0,0.,24.0,0.,24.0,0.,24.0
1979-07-24 17:13:43.360 ,5,1,0.,24.0,0.,24.0,0.,24.0,0.,24.0
1979-07-24 17:14:07.360 ,1,1,0.,24.0,0.,24.0,0.,24.0,0.,24.0
1979-07-24 17:14:31.360 ,2,1,0.,24.0,0.,24.0,0.,24.0,0.,24.0
1979-07-24 17:14:55.360 ,6,1,0.,24.0,0.,24.0,0.,24.0,0.,24.0
1979-07-24 17:15:19.360 ,5,1,0.,24.0,0.,24.0,0.,24.0,0.,24.0
1979-07-24 17:15:43.360 ,1,1,0.,24.0,0.,24.0,0.,24.0,0.,24.0
1979-07-24 17:16:07.360 ,2,1,0.,24.0,0.,24.0,0.,24.0,0.,24.0
1979-07-24 17:16:31.360 ,6,1,0.,24.0,0.,24.0,0.,24.0,0.,24.0
1979-07-24 17:16:55.360 ,5,1,0.,24.0,0.,24.0,0.,24.0,0.,24.0
1979-07-24 17:17:19.360 ,1,1,0.,24.0,0.,24.0,0.,24.0,0.,24.0
1979-07-24 17:17:43.360 ,0,0,0.,24.0,0.,24.0,0.,24.0,0.,24.0
1979-07-24 17:18:07.360 ,0,0,0.,24.0,0.,24.0,0.,24.0,1.,24.0
1979-07-24 17:18:31.360 ,5,1,0.,24.0,0.,24.0,0.,24.0,0.,24.0
1979-07-24 17:18:55.360 ,5,0,0.,24.0,0.,24.0,0.,24.0,0.,24.0
1979-07-24 17:19:19.360 ,4,1,0.,24.0,0.,24.0,0.,24.0,0.,24.0
1979-07-24 17:19:43.360 ,4,0,0.,24.0,0.,24.0,0.,24.0,0.,24.0
1979-07-24 17:20:07.360 ,3,1,0.,24.0,0.,24.0,0.,24.0,0.,24.0
1979-07-24 17:20:31.360 ,3,0,0.,24.0,0.,24.0,0.,24.0,0.,24.0
1979-07-24 17:20:55.360 ,2,1,0.,24.0,0.,24.0,0.,24.0,0.,24.0
1979-07-24 17:21:19.360 ,2,0,0.,24.0,0.,24.0,0.,24.0,1.,24.0
1979-07-24 17:21:43.360 ,1,1,0.,24.0,0.,24.0,0.,24.0,0.,24.0
1979-07-24 17:22:07.360 ,1,0,0.,24.0,0.,24.0,0.,24.0,0.,24.0
1979-07-24 17:22:31.360 ,0,1,0.,24.0,0.,24.0,0.,24.0,0.,24.0
1979-07-24 17:22:55.360 ,0,0,0.,24.0,0.,24.0,0.,24.0,0.,24.0
1979-07-24 17:23:19.360 ,0,1,0.,24.0,0.,24.0,0.,24.0,0.,24.0
1979-07-24 17:23:43.360 ,0,0,0.,24.0,0.,24.0,0.,24.0,0.,24.0
1979-07-24 17:24:07.360 ,1,1,0.,24.0,0.,24.0,0.,24.0,0.,24.0
1979-07-24 17:24:31.360 ,1,0,0.,24.0,0.,24.0,0.,24.0,0.,24.0
1979-07-24 17:24:55.360 ,2,1,0.,24.0,0.,24.0,0.,24.0,0.,24.0
1979-07-24 17:25:19.360 ,2,0,1.,24.0,0.,24.0,0.,24.0,0.,24.0
1979-07-24 17:25:43.360 ,3,1,0.,24.0,0.,24.0,0.,24.0,0.,24.0
1979-07-24 17:26:07.360 ,3,0,0.,24.0,0.,24.0,0.,24.0,0.,24.0
1979-07-24 17:26:31.360 ,4,1,0.,24.0,0.,24.0,0.,24.0,0.,24.0
1979-07-24 17:26:55.360 ,4,0,0.,24.0,0.,24.0,0.,24.0,0.,24.0
1979-07-24 17:27:19.360 ,5,1,0.,24.0,0.,24.0,0.,24.0,0.,24.0
1979-07-24 17:27:43.360 ,5,0,0.,24.0,0.,24.0,0.,24.0,0.,24.0
1979-07-24 17:28:07.360 ,6,1,0.,24.0,0.,24.0,0.,24.0,0.,24.0
1979-07-24 17:28:31.360 ,6,0,0.,24.0,0.,24.0,0.,24.0,0.,24.0
1979-07-24 17:28:55.360 ,7,1,0.,24.0,0.,24.0,0.,24.0,0.,24.0
1979-07-24 17:29:19.360 ,7,0,0.,24.0,0.,24.0,0.,24.0,0.,24.0
1979-07-24 17:29:43.360 ,7,1,0.,24.0,0.,24.0,0.,24.0,0.,24.0
1979-07-24 17:30:07.360 ,7,0,0.,24.0,0.,24.0,0.,24.0,0.,24.0
1979-07-24 17:30:31.360 ,6,1,0.,24.0,0.,24.0,0.,24.0,0.,24.0
1979-07-24 17:30:55.360 ,6,0,0.,24.0,0.,24.0,0.,24.0,0.,24.0
1979-07-24 17:31:19.360 ,5,1,0.,24.0,0.,24.0,0.,24.0,0.,24.0
1979-07-24 17:31:43.360 ,5,0,0.,24.0,0.,24.0,0.,24.0,0.,24.0
1979-07-24 17:32:07.360 ,4,1,0.,24.0,0.,24.0,0.,24.0,0.,24.0
1979-07-24 17:32:31.360 ,4,0,0.,24.0,0.,24.0,0.,24.0,0.,24.0
1979-07-24 17:32:55.360 ,3,1,0.,24.0,0.,24.0,0.,24.0,0.,24.0
1979-07-24 17:33:19.360 ,3,0,0.,24.0,0.,24.0,0.,24.0,0.,24.0
1979-07-24 17:33:43.360 ,2,1,0.,24.0,0.,24.0,0.,24.0,0.,24.0
1979-07-24 17:34:07.360 ,2,0,0.,24.0,0.,24.0,0.,24.0,0.,24.0